2025-013D (62732 NORAD) Tracking and Keplerian Element Data

This shows tracking and keplerian element data for the satellite.

Feedback or suggestion? Click here.




ElementValue
Catalog62732
Name2025-013D
Epoch Orbit5027
Epoch Day354.30354205
Epoch Year2025
RAAN158.913
Inclination97.6359
Eccentricity0.0007557
Argument of Perigee286.4538
Mean Anonmoly73.586
Mean Motion15.09688154
Decay Rate2.728E-05
L11 62732U 25013D 25354.30354205 .00002728 00000+0 17330-3 0 9997
L22 62732 97.6359 158.9130 0007557 286.4538 73.5860 15.09688154 50278



Live tracking and technical data element details for 2025-013D (NORAD 62732). 2025-013D can be tracked NOW for your location showing map with azimuth and elevation plus other details from your city location.







IsCatalogInMostPopularTable: catalog: 62732, numindb: 220
Update: records affected: 1



GetName: 62732 2025-013D

Hit Count: updated at: Fri, 16 Jan 2026 09:07:56 GMT